Regional Weather Roundup
Issued by NWS New Orleans/Baton Rouge, LA

Home | Current Version | Previous Version | Text Only | Print | Product List | Glossary On
Versions: 1 2 3 4 5 6 7 8 9 10 11 12 13 14 15 16 17 18 19 20 21 22 23 24 25 26 27 28 29 30 31 32 33 34 35 36 37 38 39 40 41 42 43 44 45 46 47 48 49 50
464
ASUS44 KLIX 221010
RWRLIX
NEW ORLEANS REGIONAL WEATHER ROUNDUP
NATIONAL WEATHER SERVICE NEW ORLEANS LA
500 AM CDT WED OCT 22 2014

NOTE: "FAIR" INDICATES FEW OR NO CLOUDS BELOW 12,000 FEET WITH NO
      SIGNIFICANT WEATHER AND/OR OBSTRUCTIONS TO VISIBILITY.
      SKY/WX - SKY CONDITION AND SIGNIFICANT WEATHER.
      TMP - AIR TEMPERATURE.     DP    - DEWPOINT TEMPERATURE.
      RH  - RELATIVE HUMIDITY.   PRES  - PRESSURE.
      HI  - HEAT INDEX.          WCI   - WIND CHILL INDEX.

*  THESE STATIONS ARE NOT NWS OR FAA STATIONS AND ARE NOT UNDER
   NWS QUALITY CONTROL.

LAZ038-040-048-061>063-065>067-069-221100-
SOUTHEAST LOUISIANA

CITY           SKY/WX    TMP DP  RH WIND       PRES   REMARKS
N.O. AUDUBON   NOT AVBL
N.O. INTL ARPT PTCLDY    67  59  75 NE7       30.03R
N.O. LAKEFRONT CLEAR     70  60  70 NE13      30.04R
N.O. DOWNTOWN*   N/A     66  55  68 NE6       30.03S
SLIDELL        CLEAR     53  51  93 CALM      30.04R
BATON ROUGE    CLEAR     57  55  93 NE3       30.05R
BOOTHVILLE     CLEAR     71  66  84 N5        30.00S
BELLE CHASSE   CLEAR     57  54  89 CALM      30.02R
BOGALUSA*        N/A     55  52  89 CALM      30.07R
NEW ROADS*       N/A     56  56  98 CALM      30.05S FOG
GONZALES*        N/A     58  58 100 CALM      30.04R
HAMMOND*       CLEAR     55  54  94 N3        30.06S
HOUMA*         CLEAR     59  57  93 N5        30.02S
PORT FOURCHON* SUNNY     68  63  83 N8        30.04R

$$

MSZ070-080>082-221100-
SOUTHERN MISSISSIPPI

CITY           SKY/WX    TMP DP  RH WIND       PRES   REMARKS
MCCOMB         CLEAR     60  53  77 NE5       30.07R
GULFPORT       CLEAR     59  54  83 N6        30.03R
BILOXI         CLEAR     59  55  85 NE5       30.03R
PASCAGOULA     CLEAR     53  52  96 CALM      30.03R

$$

COASTAL OBSERVATIONS
LAKE AND NEARSHORE STATIONS

STATION/POSITION TIME  TEMP    WIND        PRES    WAVE
                       AIR SEA DIR/SP/G            HT/PER
                 (UTC) (F)     (DEG/KT/KT) (MB)    (FT/S)
PASCAGOULA       1000   61      10/  7/  9 1016.1
WAVELAND YACHT   1000   64      30/ 12/ 14 1016.1
GRAND ISLE       1000   71 75   40/  9/ 13 1016.4
SOUTHWEST PASS   1000   73 83              1015.8
NEW CANAL        1000   70 71   50/ 11/ 13 1017.2
SHELL BEACH      1000   71 69   30/ 11/ 12 1016.3

OFFSHORE STATIONS

STATION/POSITION TIME  TEMP    WIND        PRES    WAVE
                       AIR SEA DIR/SP/G            HT/PER
                 (UTC) (F)     (DEG/KT/KT) (MB)    (FT/S)
64 S DAUPHIN ISL 0949   76 79   50/ 16/ 19 1015.7    2/ 4

$$




USA.gov is the U.S. government's official web portal to all federal, state and local government web resources and services.